Regional Weather Roundup
Issued by NWS Burlington, VT

Home | Current Version | Previous Version | Text Only | Print | Product List | Glossary On
Versions: 1 2 3 4 5 6 7 8 9 10 11 12 13 14 15 16 17 18 19 20 21 22 23 24 25 26 27 28 29 30 31 32 33 34 35 36 37 38 39 40 41 42 43 44 45 46 47 48 49 50
000
ASUS41 KBTV 262330
RWRBTV
VERMONT REGIONAL WEATHER ROUNDUP
NATIONAL WEATHER SERVICE BURLINGTON VT
600 PM EST MON JAN 26 2015

NOTE: "FAIR" INDICATES FEW OR NO CLOUDS BELOW 12,000 FEET WITH NO
SIGNIFICANT WEATHER AND/OR OBSTRUCTIONS TO VISIBILITY.

* THESE REPORTS ARE NOT UNDER NWS QUALITY CONTROL AND/OR DO NOT
  REPORT WEATHER SUCH AS PRECIPITATION AND FOG.

VTZ001>019-270000-
_____VERMONT_____


CITY           SKY/WX    TMP DP  RH WIND       PRES   REMARKS
BURLINGTON     MOCLDY     8  -3  61 N8        30.12F
MONTPELIER     CLOUDY     9   0  67 CALM      30.07F
MORRISVILLE    MOCLDY    11  -1  58 N7        30.10F
ST. JOHNSBURY*   N/A     13   1  59 MISG      30.08S
MIDDLEBURY*    CLOUDY    10   2  69 N6        30.08R
RUTLAND*       CLOUDY    14   3  62 W5        30.03R
SPRINGFIELD    CLOUDY    19   0  43 NE5       30.07S
HIGHGATE*      FAIR       3  -5  69 N3        30.15F
NEWPORT*       FAIR       4  -4  67 N7        30.10F
BENNINGTON     CLOUDY    19  11  70 N3        29.97R
SUTTON*          N/A      7 N/A N/A MISG        N/A
GALLUP MILLS*    N/A      7 N/A N/A MISG        N/A
UNION VILLAGE*   N/A     16 N/A N/A MISG        N/A
MT. MANSFIELD*   N/A      1 N/A N/A CALM        N/A

_____LAKE CHAMPLAIN_____


CITY           SKY/WX    TMP DP  RH WIND       PRES   REMARKS
BURTON ISLAND*   N/A      9   0  66 N2          N/A
COLCHESTER RF*   N/A     10   3  72 N17         N/A  WCI  -7
DIAMOND ISL*     N/A     12   7  79 NW17        N/A  WCI  -5

$$

NYZ007-026>031-035-052-083-270000-
_____NORTHERN NEW YORK_____


CITY           SKY/WX    TMP DP  RH WIND       PRES   REMARKS
PLATTSBURGH    PTCLDY     6  -4  63 N10       30.15F WCI  -9
SARANAC LAKE   CLOUDY     4  -5  66 NE12      29.93F WCI -12
MASSENA        CLOUDY     5  -5  63 NE22      30.16R WCI -16
OGDENSBURG*    CLEAR      7  -2  66 NE9       30.11R
POTSDAM*       CLOUDY     5  -4  66 NE12      30.09S WCI -11
STARK FALLS*     N/A      7 N/A N/A N1          N/A
WATERTOWN      MOCLDY    11  -1  58 NE12      30.05R WCI  -3
FT DRUM        CLOUDY     7  -2  66 NE13      30.00S WCI  -9
ALBANY         FLURRIES  17   8  67 N10       30.04R WCI   5
GLENS FALLS    CLOUDY    17   3  54 N7        30.06R

$$
NHZ002-005-011-270000-
_____NEW HAMPSHIRE_____


CITY           SKY/WX    TMP DP  RH WIND       PRES   REMARKS
LEBANON        CLOUDY    20  -4  34 CALM      30.07S
KEENE          CLOUDY    19   5  53 NE8       30.03F
MT WASHINGTON  MOCLDY    12 -17  26 S12         N/A  WCI  -2
PLYMOUTH       CLOUDY    19  -1  40 E8        30.11R
WHITEFIELD     CLOUDY    13  -2  51 CALM      30.05F

$$

_____REGIONAL QUEBEC LOCATIONS_____


CITY           SKY/WX    TMP DP  RH WIND       PRES   REMARKS
MONTREAL       PTCLDY     3  -9  55 NE15G22   30.22R WCI -15
QUEBEC CITY    PTCLDY    -2  -9  71 NW2       30.27R
SHERBROOKE     CLEAR      7  -6  56 NE6       30.12F

_____REGIONAL ONTARIO LOCATIONS_____


CITY           SKY/WX    TMP DP  RH WIND       PRES   REMARKS
OTTAWA         PTCLDY     3  -9  55 NE12      30.15S WCI -13

______KEY______
VSB  - VISIBILITY IN MILES
WCI  - WIND CHILL INDEX
HX   - HEAT INDEX
$$
NNNN



USA.gov is the U.S. government's official web portal to all federal, state and local government web resources and services.